EW9551 Weather Reports


Display with metric or nautical units.
time (UTC)temp
F
wind
direction
speed
MPH
gust
MPH
rain 1hr
in
rain 24hr
in
rain mn
in
humidity
%
barometer
mb
20201101003945 51 179 0.0 2.0 0.00 0.01 0.00 91 1021.5
20201101002441 51 189 1.0 3.0 0.00 0.01 0.00 91 1021.7
20201101000938 52 203 0.0 0.0 0.00 0.01 0.00 90 1021.7
20201031235438 52 203 0.0 0.0 0.00 0.01 0.00 90 1021.5
20201031233942 52 203 0.0 0.0 0.00 0.01 0.00 90 1021.6
20201031232438 52 213 0.0 0.0 0.00 0.01 0.00 90 1021.7
20201031230939 52 209 0.0 4.0 0.00 0.01 0.00 90 1021.5
20201031225434 52 190 1.0 3.0 0.00 0.01 0.01 90 1021.4
20201031223933 53 197 0.0 0.0 0.00 0.01 0.01 89 1021.2
20201031222443 53 227 0.0 4.0 0.00 0.01 0.01 89 1021.2
20201031220934 53 192 0.0 3.0 0.00 0.01 0.01 88 1021.3
20201031215435 54 216 0.0 3.0 0.00 0.01 0.01 88 1021.4
20201031213939 54 197 0.0 4.0 0.00 0.01 0.01 88 1021.5
20201031212433 54 220 0.0 5.0 0.00 0.01 0.01 88 1021.6
20201031210936 54 204 2.0 6.0 0.00 0.01 0.01 88 1021.2
20201031205433 54 237 0.0 4.0 0.00 0.01 0.01 87 1021.3
20201031203944 54 202 3.0 7.0 0.00 0.01 0.01 88 1021.0
20201031202431 54 173 3.0 6.0 0.00 0.01 0.01 88 1020.8
20201031200933 53 185 0.0 2.0 0.00 0.01 0.01 87 1020.8
20201031195431 53 197 1.0 3.0 0.00 0.01 0.01 86 1020.8
20201031193933 53 182 0.0 0.0 0.00 0.01 0.01 83 1020.9
20201031192443 54 182 0.0 3.0 0.00 0.01 0.00 84 1020.8
20201031190943 54 220 0.0 0.0 0.00 0.01 0.01 81 1020.7
20201031185437 55 237 0.0 1.0 0.00 0.01 0.01 78 1020.8
20201031183932 56 193 0.0 0.0 0.00 0.01 0.01 79 1020.7
20201031182431 56 159 0.0 0.0 0.00 0.01 0.01 78 1020.4
20201031180930 56 183 0.0 5.0 0.00 0.01 0.01 78 1020.6
20201031175436 57 252 0.0 0.0 0.00 0.01 0.01 78 1020.6
20201031173929 57 252 0.0 7.0 0.00 0.01 0.01 76 1020.6
20201031172439 58 164 0.0 4.0 0.00 0.01 0.01 76 1020.3
20201031170933 59 162 0.0 3.0 0.00 0.01 0.01 75 1020.3
20201031165431 60 173 0.0 2.0 0.00 0.01 0.01 75 1020.3
20201031163934 62 207 0.0 0.0 0.00 0.01 0.01 73 1020.2
20201031162431 63 207 0.0 5.0 0.00 0.01 0.01 70 1020.0
20201031160928 64 188 0.0 3.0 0.00 0.01 0.01 70 1019.8
20201031155429 65 158 0.0 0.0 0.00 0.01 0.01 69 1019.7
20201031153930 66 195 0.0 0.0 0.00 0.01 0.01 68 1019.9
20201031152426 66 189 0.0 6.0 0.00 0.01 0.01 68 1019.9
20201031150930 66 202 1.0 11.0 0.00 0.01 0.01 67 1019.9
20201031145428 66 168 4.0 9.0 0.00 0.01 0.01 67 1019.8
20201031143930 66 190 1.0 9.0 0.00 0.01 0.01 67 1019.8
20201031142438 66 217 3.0 12.0 0.00 0.01 0.01 67 1019.7
20201031140926 66 248 0.0 11.0 0.00 0.01 0.01 68 1020.3
20201031135426 65 183 3.0 13.0 0.00 0.01 0.01 68 1020.0
20201031133929 65 224 3.0 10.0 0.00 0.01 0.01 71 1020.0
20201031132425 64 186 5.0 9.0 0.00 0.01 0.01 74 1020.3
20201031130928 63 217 0.0 6.0 0.00 0.01 0.01 76 1020.6
20201031125424 63 192 0.0 6.0 0.00 0.01 0.01 77 1020.7
20201031123939 63 195 0.0 9.0 0.00 0.01 0.01 77 1020.9
20201031122423 62 169 2.0 5.0 0.00 0.01 0.01 79 1021.2
20201031120923 62 216 0.0 5.0 0.00 0.01 0.01 81 1021.4
20201031115422 61 262 0.0 0.0 0.00 0.01 0.01 86 1021.6
20201031113921 60 250 0.0 2.0 0.00 0.01 0.01 90 1021.6
20201031112438 59 251 0.0 0.0 0.00 0.01 0.01 94 1021.8
20201031110924 58 195 0.0 0.0 0.00 0.01 0.01 95 1021.9
20201031105422 58 255 0.0 0.0 0.00 0.01 0.01 96 1022.2
20201031103920 57 214 0.0 0.0 0.00 0.01 0.01 96 1022.3
20201031102424 55 155 0.0 0.0 0.00 0.01 0.01 97 1022.2
20201031100924 54 226 0.0 0.0 0.00 0.01 0.01 96 1022.4
20201031095420 53 240 0.0 0.0 0.00 0.01 0.01 97 1022.6
20201031093943 51 241 0.0 0.0 0.00 0.01 0.01 97 1022.7
20201031093155 49 243 0.0 0.0 0.00 0.01 0.01 97 1022.7
20201031092424 49 243 0.0 0.0 0.00 0.01 0.01 97 1022.7
20201031090918 47 221 0.0 0.0 0.00 0.01 0.01 96 1022.9
20201031085427 46 221 0.0 0.0 0.00 0.01 0.01 96 1022.9
20201031083923 45 224 0.0 0.0 0.00 0.01 0.01 96 1022.8
20201031082422 43 196 0.0 0.0 0.00 0.01 0.01 96 1022.9
20201031080916 42 195 0.0 0.0 0.00 0.01 0.01 96 1023.1
20201031075419 42 195 0.0 0.0 0.00 0.01 0.01 95 1023.0
20201031073916 42 195 0.0 0.0 0.00 0.01 0.01 95 1022.9
20201031072425 43 196 0.0 2.0 0.00 0.01 0.00 95 1022.9
20201031070912 44 183 0.0 2.0 0.00 0.01 0.01 95 1022.9
20201031065407 44 157 0.0 0.0 0.00 0.01 0.01 95 1022.9
20201031063907 44 157 0.0 0.0 0.00 0.01 0.01 95 1022.7
20201031062408 44 157 0.0 0.0 0.00 0.01 0.01 95 1022.6
20201031060904 44 157 0.0 0.0 0.00 0.01 0.01 95 1022.5
20201031055405 45 157 0.0 0.0 0.00 0.01 0.01 95 1022.4
20201031053903 45 157 0.0 0.0 0.00 0.01 0.01 95 1022.4
20201031052405 45 157 0.0 0.0 0.00 0.01 0.01 95 1022.5
20201031050903 45 157 0.0 0.0 0.00 0.01 0.01 95 1022.6
20201031045403 45 155 0.0 0.0 0.00 0.01 0.01 95 1022.6
20201031043906 45 155 0.0 0.0 0.00 0.01 0.01 95 1022.7
20201031042403 45 155 0.0 0.0 0.00 0.01 0.01 95 1022.7
20201031040907 46 155 0.0 0.0 0.00 0.01 0.01 95 1022.7
20201031035408 46 155 0.0 0.0 0.00 0.01 0.01 95 1022.6
20201031033911 46 155 0.0 0.0 0.00 0.01 0.01 95 1022.5
20201031032408 46 155 0.0 0.0 0.00 0.01 0.01 95 1022.6
20201031030905 46 155 0.0 0.0 0.00 0.01 0.01 95 1022.7
20201031025411 46 154 0.0 0.0 0.00 0.01 0.01 95 1022.7
20201031023903 46 154 0.0 0.0 0.00 0.01 0.01 94 1022.8
20201031022406 46 154 0.0 2.0 0.01 0.01 0.01 94 1022.8
20201031020904 47 85 0.0 0.0 0.01 0.01 0.01 94 1023.1
20201031015402 47 120 0.0 0.0 0.01 0.01 0.01 94 1023.1
20201031013902 47 63 0.0 0.0 0.01 0.01 0.01 94 1023.5
20201031012415 46 63 0.0 0.0 0.00 0.00 0.00 94 1023.5
20201031010904 46 63 0.0 0.0 0.00 0.00 0.00 94 1023.6
20201031005418 46 63 0.0 0.0 0.00 0.00 0.00 94 1023.6